Weather History for Gainesville, GA

Change the Weather History Date:

Saturday, January 14, 2012

  Actual Average Record
Temperature  
Mean Temperature 37 °F 41 °F  
Max Temperature 48 °F 50 °F 76 °F (1932)
Min Temperature 26 °F 33 °F 16 °F (1948)
Degree Days  
Heating Degree Days 28 24  
Month to date heating degree days 336  
Since 1 July heating degree days 1532  
Moisture  
Dew Point 18 °F    
Average Humidity 49    
Maximum Humidity 72    
Minimum Humidity 30    
Precipitation  
Precipitation 0.00 in 0.14 in 1.34 in (1940)
Month to date precipitation 1.88  
Year to date precipitation 1.88  
Snow  
Snow 0.00 in - - ()
Month to date snowfall  
Since 1 July snowfall  
Snow Depth -    
Sea Level Pressure  
Sea Level Pressure 30.19 in    
Wind  
Wind Speed 10 mph (West)    
Max Wind Speed 15 mph    
Max Gust Speed 21 mph    
Visibility 10 miles    
Events      
T = Trace of Precipitation, MM = Missing Value Source: NWS Daily Summary

Daily Weather History Graph

Daily Weather History Graph

Search for Another Location

Airport:

Trip Planner

Search our weather history database for the weather conditions in past years. The results will help you decide how hot, cold, wet, or windy it might be!

Date:

Astronomy

Jan. 14, 2012 Rise Set
Actual Time 7:41 AM EST 5:47 PM EST
Civil Twilight 7:14 AM EST 6:14 PM EST
Nautical Twilight 6:43 AM EST 6:45 PM EST
Astronomical Twilight 6:13 AM EST 7:15 PM EST
Moon 11:47 PM EST (1/14) 10:44 AM EST (1/14)
Length of Visible Light 11h 00m
Length of Day
10h 05m
Waning Gibbous, 69% of the Moon is Illuminated
Jan 14
Waning Gibbous
Jan 16
Last Quarter
Jan 23
New
Jan 30
First Quarter
Feb 7
Full

Hourly Weather History & Observations

Time (EST) Temp. Windchill Dew Point Humidity Pressure Visibility Wind Dir Wind Speed Gust Speed Precip Events Conditions
12:53 AM 28.0 °F 17.5 °F 19.0 °F 69% 30.19 in 10.0 mi West 12.7 mph - N/A   Clear
1:53 AM 28.0 °F 18.1 °F 18.0 °F 66% 30.20 in 10.0 mi WNW 11.5 mph - N/A   Clear
2:53 AM 28.0 °F 20.0 °F 18.0 °F 66% 30.19 in 10.0 mi West 8.1 mph - N/A   Clear
3:53 AM 27.0 °F 19.5 °F 19.0 °F 72% 30.18 in 10.0 mi WNW 6.9 mph - N/A   Clear
4:53 AM 27.0 °F 18.7 °F 18.0 °F 69% 30.20 in 10.0 mi West 8.1 mph - N/A   Clear
5:53 AM 27.0 °F 17.3 °F 18.0 °F 69% 30.22 in 10.0 mi West 10.4 mph - N/A   Clear
6:53 AM 26.1 °F 17.6 °F 18.0 °F 71% 30.23 in 10.0 mi West 8.1 mph - N/A   Clear
7:53 AM 27.0 °F 17.3 °F 18.0 °F 69% 30.24 in 10.0 mi West 10.4 mph - N/A   Clear
8:53 AM 28.9 °F 19.8 °F 17.1 °F 61% 30.26 in 10.0 mi West 10.4 mph - N/A   Clear
9:53 AM 33.1 °F 25.5 °F 16.0 °F 50% 30.28 in 10.0 mi WNW 9.2 mph 17.3 mph N/A   Clear
10:53 AM 36.0 °F 27.1 °F 16.0 °F 44% 30.28 in 10.0 mi WNW 13.8 mph - N/A   Clear
11:53 AM 39.0 °F 32.3 °F 14.0 °F 36% 30.25 in 10.0 mi West 10.4 mph - N/A   Clear
12:53 PM 42.1 °F 34.5 °F 14.0 °F 32% 30.22 in 10.0 mi WSW 15.0 mph 20.7 mph N/A   Clear
1:53 PM 44.1 °F 39.5 °F 16.0 °F 32% 30.18 in 10.0 mi WSW 8.1 mph - N/A   Clear
2:53 PM 46.0 °F 41.4 °F 17.1 °F 31% 30.16 in 10.0 mi WSW 9.2 mph - N/A   Clear
3:53 PM 48.0 °F - 18.0 °F 30% 30.14 in 10.0 mi West 10.4 mph - N/A   Clear
4:53 PM 48.0 °F - 19.9 °F 33% 30.12 in 10.0 mi SW 10.4 mph - N/A   Clear
5:53 PM 46.9 °F - 19.0 °F 33% 30.11 in 10.0 mi SW 8.1 mph - N/A   Scattered Clouds
6:53 PM 45.0 °F 41.2 °F 19.0 °F 36% 30.14 in 10.0 mi SW 6.9 mph - N/A   Clear
7:53 PM 44.1 °F 38.6 °F 19.9 °F 38% 30.15 in 10.0 mi SW 10.4 mph 17.3 mph N/A   Mostly Cloudy
8:53 PM 43.0 °F 38.2 °F 19.9 °F 40% 30.15 in 10.0 mi SSW 8.1 mph - N/A   Mostly Cloudy
9:53 PM 43.0 °F 38.2 °F 19.9 °F 40% 30.15 in 10.0 mi SW 8.1 mph - N/A   Scattered Clouds
10:53 PM 43.0 °F 37.2 °F 21.9 °F 43% 30.16 in 10.0 mi WSW 10.4 mph - N/A   Mostly Cloudy
11:53 PM 42.1 °F 36.6 °F 21.9 °F 45% 30.15 in 10.0 mi West 9.2 mph - N/A   Clear